Beaufort, NC

7:33 PM EST on December 14, 2019 (GMT -0500)
Smith

Weather History for KMRH - October, 2019

Change the Weather History Date:

Friday, October 25, 2019

  Actual Average Record
Temperature  
Mean Temperature 70 °F -  
Max Temperature 79 °F 74 °F 84 °F (1991)
Min Temperature 62 °F 55 °F 39 °F (2006)
Cooling Degree Days 5    
Growing Degree Days 20 (Base 50)    
Moisture  
Dew Point 60 °F    
Average Humidity 77    
Maximum Humidity 97    
Minimum Humidity 48    
Precipitation  
Precipitation 0.00 in - - ()
Sea Level Pressure  
Sea Level Pressure 30.24 in    
Wind  
Wind Speed 6 mph (ENE)    
Max Wind Speed 8 mph    
Max Gust Speed -    
Visibility 10 miles    
Events      
Averages and records for this station are not official NWS values.
T = Trace of Precipitation, MM = Missing Value Source: NWS Daily Summary

Daily Weather History Graph

Daily Weather History Graph

Search for Another Location

Airport or City:

Astronomy

Oct. 25, 2019 Rise Set
Actual Time 7:20 AM EDT 6:20 PM EDT
Civil Twilight 6:54 AM EDT 6:46 PM EDT
Nautical Twilight 6:25 AM EDT 7:15 PM EDT
Astronomical Twilight 5:56 AM EDT 7:44 PM EDT
Moon 4:12 AM EDT (10/25) 5:11 PM EDT (10/25)
Length of Visible Light 11h 51m
Length of Day
10h 59m
Waning Crescent, 9% of the Moon is Illuminated
Oct 25
Waning Crescent
Oct 27
New
Nov 4
First Quarter
Nov 12
Full
Nov 19
Last Quarter

Hourly Weather History & Observations

Time (EDT) Temp. Dew Point Humidity Pressure Visibility Wind Dir Wind Speed Gust Speed Precip Events Conditions
12:58 AM 63.0 °F 60.1 °F 90% 30.29 in 10.0 mi NE 4.6 mph - N/A   Clear
1:58 AM 63.0 °F 60.1 °F 90% 30.28 in 10.0 mi NE 5.8 mph - N/A   Clear
2:58 AM 63.0 °F 59.0 °F 87% 30.27 in 10.0 mi NE 6.9 mph - N/A   Clear
3:58 AM 63.0 °F 59.0 °F 87% 30.25 in 10.0 mi NE 5.8 mph - N/A   Clear
4:58 AM 62.1 °F 60.1 °F 93% 30.25 in 10.0 mi NE 6.9 mph - N/A   Clear
5:58 AM 62.1 °F 61.0 °F 96% 30.26 in 10.0 mi NE 6.9 mph - N/A   Clear
6:58 AM 63.0 °F 61.0 °F 93% 30.27 in 10.0 mi NE 6.9 mph - N/A   Clear
7:58 AM 63.0 °F 62.1 °F 97% 30.27 in 10.0 mi NE 5.8 mph - N/A   Clear
8:58 AM 68.0 °F 64.9 °F 90% 30.28 in 10.0 mi NE 4.6 mph - N/A   Clear
9:58 AM 72.0 °F 64.0 °F 76% 30.29 in 10.0 mi NE 6.9 mph - N/A   Clear
10:58 AM 75.0 °F 63.0 °F 66% 30.28 in 10.0 mi ENE 8.1 mph - N/A   Clear
11:58 AM 75.9 °F 57.9 °F 54% 30.27 in 10.0 mi East 8.1 mph - N/A   Partly Cloudy
12:58 PM 77.0 °F 55.9 °F 48% 30.25 in 10.0 mi ESE 6.9 mph - N/A   Scattered Clouds
1:58 PM 78.1 °F 60.1 °F 54% 30.22 in 10.0 mi ESE 8.1 mph - N/A   Clear
2:58 PM 78.1 °F 60.1 °F 54% 30.19 in 10.0 mi East 8.1 mph - N/A   Clear
3:58 PM 75.9 °F 60.1 °F 58% 30.18 in 10.0 mi East 6.9 mph - N/A   Clear
4:58 PM 73.9 °F 60.1 °F 62% 30.18 in 10.0 mi East 4.6 mph - N/A   Partly Cloudy
5:58 PM 72.0 °F 60.1 °F 66% 30.19 in 10.0 mi East 5.8 mph - N/A   Scattered Clouds
6:58 PM 69.1 °F 60.1 °F 73% 30.20 in 10.0 mi Calm Calm - N/A   Clear
7:58 PM 66.9 °F 59.0 °F 76% 30.20 in 10.0 mi NE 5.8 mph - N/A   Clear
8:58 PM 66.0 °F 59.0 °F 78% 30.20 in 10.0 mi ENE 3.5 mph - N/A   Clear
9:58 PM 66.0 °F 60.1 °F 81% 30.22 in 10.0 mi ENE 3.5 mph - N/A   Partly Cloudy
10:58 PM 66.0 °F 62.1 °F 87% 30.22 in 10.0 mi NE 5.8 mph - N/A   Overcast
11:58 PM 64.9 °F 62.1 °F 90% 30.20 in 10.0 mi NE 3.5 mph - N/A   Partly Cloudy